Location: Unspecified
(0.0000°N, 0.0000°E)
Time: 00:06:56
(UTC+02:00)

Cosmos 1125 Rocket - Visible Passes

Search period start: 24 April 2014 00:00
Search period end: 04 May 2014 00:00
Orbit: 760 x 781 km, 74.0° (Epoch: 23 April)

Date Brightness Start Highest point End Pass type
(mag) Time Alt. Az. Time Alt. Az. Time Alt. Az.
24 Apr 5.6 05:24:04 22° NE 05:24:04 22° NE 05:25:56 10° NNE visible
25 Apr 5.5 06:29:37 13° NW 06:29:37 13° NW 06:30:22 10° NNW visible
26 Apr 5.8 05:54:40 12° N 05:54:40 12° N 05:55:06 10° N visible
